Regional Weather Roundup
Issued by NWS Upton, NY

Current Version | Previous Version | Text Only | Print | Product List | Glossary On
Versions: 1 2 3 4 5 6 7 8 9 10 11 12 13 14 15 16 17 18 19 20 21 22 23 24 25 26 27 28 29 30 31 32 33 34 35 36 37 38 39 40 41 42 43 44 45 46 47 48 49 50
000
ASUS41 KOKX 312104
RWROKX

REGIONAL WEATHER ROUNDUP
NATIONAL WEATHER SERVICE NEW YORK NY
500 PM EDT FRI JUL 31 2015

NOTE: "FAIR" INDICATES FEW OR NO CLOUDS BELOW 12,000 FEET WITH NO
SIGNIFICANT WEATHER AND/OR OBSTRUCTIONS TO VISIBILITY.

NYZ071-072-176-178-NJZ106-104-312200-
NEW YORK CITY METRO AREA


CITY           SKY/WX    TMP DP  RH WIND       PRES   REMARKS
CENTRAL PARK   SUNNY     88  52  29 VRB6      29.84F
LAGUARDIA APRT MOSUNNY   90  50  25 W7G22     29.80F
KENNEDY INTL   PTSUNNY   87  61  41 SW15      29.81F
NEWARK/LIBERTY MOSUNNY   91  53  27 NW6       29.81F
BRNX BOT. GARD   N/A     88  52  29 NE9       29.84R
TETERBORO      SUNNY     90  49  24 W10G18    29.80S
$$

NYZ177-179-078>081-312200-
LONG ISLAND NEW YORK

CITY           SKY/WX    TMP DP  RH WIND       PRES   REMARKS
FARMINGDALE    SUNNY     89  53  29 NW6       29.80F
ISLIP          MOSUNNY   88  59  37 W8G23     29.79F
SHIRLEY        SUNNY     90  50  25 NW12G18   29.81S
WESTHAMPTON    MOSUNNY   87  56  34 SW13G23   29.81F
MONTAUK POINT    N/A     86  63  45 SW7       29.81S
$$

NYZ052-065-067-312200-
HUDSON VALLEY

CITY           SKY/WX    TMP DP  RH WIND       PRES   REMARKS
WHITE PLAINS   MOSUNNY   85  54  34 NW15      29.82F
NEWBURGH       NOT AVBL
MONTGOMERY     SUNNY     87  54  32 W10       29.83S
POUGHKEEPSIE   SUNNY     88  52  29 NW10      29.80S
ALBANY         MOSUNNY   85  54  34 W13       29.80F
$$

NJZ001-105-106-008-010-013-015-019>022-104-312200-
NEW JERSEY

CITY           SKY/WX    TMP DP  RH WIND       PRES   REMARKS
NEWARK/LIBERTY MOSUNNY   91  53  27 NW6       29.81F
TETERBORO      SUNNY     90  49  24 W10G18    29.80S
CALDWELL       SUNNY     88  49  25 W10       29.82F
MORRISTOWN     MOSUNNY   90  52  27 W10G21    29.83S
SOMERVILLE     MOSUNNY   89  57  33 VRB6      29.81F
SUSSEX         MOSUNNY   85  54  34 W7        29.84F
ANDOVER          N/A     86  55  34 VRB5      29.85F
TRENTON        MOSUNNY   90  56  31 W10       29.82F
MILLVILLE      MOSUNNY   89  57  33 W9        29.85F
ATLANTIC CITY  SUNNY     88  59  37 NW6       29.84F
WRIGHTSTOWN    MOSUNNY   88  59  37 NW8       29.80F
TOMS RIVER       N/A     90  57  33 W10       29.83F
BELMAR         SUNNY     90  57  33 W10       29.83S
$$

PAZ047>061-062-071-312200-
EASTERN PENNSYLVANIA

CITY           SKY/WX    TMP DP  RH WIND       PRES   REMARKS
PHILADELPHIA   MOSUNNY   90  54  29 W12       29.84F
ALLENTOWN      SUNNY     86  57  37 W10G16    29.84F
SCRANTON       MOSUNNY   85  57  38 W9        29.86F
$$

CTZ002-004>006-009-010-012-RIZ004-006-007-MAZ004-011-015-312200-
SOUTHERN NEW ENGLAND
 IN CT

CITY           SKY/WX    TMP DP  RH WIND       PRES   REMARKS
BRADLEY INTL   MOSUNNY   87  55  33 W12       29.78S
HARTFORD       MOSUNNY   87  54  32 NW8       29.78S
DANBURY        SUNNY     84  53  34 W7        29.83S
WTRBRY/OXFORD  MOSUNNY   82  57  42 NW8       29.85F
BRIDGEPORT     SUNNY     90  52  27 W12       29.79F
MERIDEN        MOSUNNY   89  54  30 W3        29.79S
NEW HAVEN      MOSUNNY   85  60  42 VRB6      29.79F
CHESTER        FAIR      84  57  39 W3        29.81F
GROTON         SUNNY     83  61  47 W13       29.78F
WILLIMANTIC    SUNNY     88  55  32 NW8       29.79S

 IN RI

CITY           SKY/WX    TMP DP  RH WIND       PRES   REMARKS
PROVIDENCE     MOSUNNY   87  55  33 W12       29.77F
BLOCK ISLAND     N/A     82  63  51 SW16      29.81F
WESTERLY       SUNNY     83  63  50 SW12      29.79F

 IN MA

CITY           SKY/WX    TMP DP  RH WIND       PRES   REMARKS
BOSTON         MOSUNNY   87  54  32 W16G30    29.75S
WORCESTER      SUNNY     81  52  36 NW10      29.82S
WESTFIELD      SUNNY     86  51  29 W14       29.79F
PROVINCETOWN   SUNNY     84  61  45 W7        29.76R
NANTUCKET      SUNNY     80  68  66 SW14      29.79S
$$

ANZ330-335-338-340-345-350-353-355-312200-
COASTAL MARINE OBSERVATIONS


STATION/POSITION TIME  SKY/WX   TEMP    WIND        PRES    VSBY  WAVE
                                AIR SEA DIR/SP/G                  HT/PER
                 (UTC)          (F)     (DEG/KT/KT) (MB)    (MI)  (FT/S)
NY HARB ENTRANCE 1950            80 78  200/ 10/ 12 1009.5          3/ 7
4S FIRE IS       NOT AVBL
20S FIRE ISLAND  1950            77 77  220/  8/ 10 1009.7          4/ 7
GREAT SOUTH BAY  2000            81 82  210/ 10/ 16   N/A
23SW MTP         2050            77 76  250/  8/ 10 1009.0          4/ 7
HUDSON CANYON    NOT AVBL
KINGS POINT      2000            84 71  330/  4/  7 1008.8
EXECUTION ROCKS  2000            83     280/  4/  8   N/A
CENTRAL LI SOUND NOT AVBL
EASTERN LI SOUND 2000            76 69  250/ 10/ 14   N/A
ROBBINS REEF     2000            86     270/  9/ 13 1008.5
$$


>>>>>>>>>>>>>>>>>>>>>>>>>>>> KEY <<<<<<<<<<<<<<<<<<<<<<<<<<<
>                                                          <
>     SKY/WX - SKY CONDITION/PRESENT WEATHER               <
>     TMP    - TEMPERATURE IN FAHRENHEIT                   <
>     DP     - DEWPOINT IN FAHRENHEIT                      <
>     RH     - RELATIVE HUMIDITY IN PERCENT                <
>     WIND   - DIRECTION AND SPEED IN MPH                  <
>     PRES   - MEAN SEA LEVEL PRESSURE IN INCHES OF HG     <
>     WCI    - WIND CHILL INDEX                            <
>     VSB    - VISIBILITY IN MILES                         <
>     HX     - HEAT INDEX                                  <
>     TC     - TEMPERATURE IN CELSIUS                      <
>     VRB    - VARIABLE WIND DIRECTION                     <
>                                                          <
>>>>>>>>>>>>>>>>>>>>>>>>>>>> KEY <<<<<<<<<<<<<<<<<<<<<<<<<<<





USA.gov is the U.S. government's official web portal to all federal, state and local government web resources and services.